RH
7 7 5 5 9 11 10 10 15 14 12 16 15 12 9 9 11 12 11 11 11 12 12 14 18 14 14 20 23 24 27 35 42 43 53 64 59 55 50 48 46 42 46 42 38 41 42 44 44 42 40 37 37 37 38 40 43 45 44 41 40 39 38 39 39 39 37 36 37 35 34 34 34 36 37 36 36 35 30 26 25 27 31 34 32 28 26 23 21 21 22 26 29 28 26 26 26
8 7 5 6 11 13 14 12 15 17 13 12 11 11 11 10 10 9 9 11 18 23 22 18 18 15 13 20 24 25 30 34 39 42 48 52 50 52 49 49 46 43 48 42 39 41 43 43 42 40 38 38 38 38 37 38 41 43 43 40 38 39 40 39 37 34 35 38 40 39 38 37 37 39 41 40 39 36 31 27 23 22 24 29 30 26 26 27 25 24 22 24 28 29 27 26 27
11 8 6 8 12 14 19 16 13 16 14 12 9 8 9 10 10 10 13 21 29 29 24 22 21 20 16 19 23 30 42 42 41 41 41 43 43 48 47 47 46 47 49 43 40 41 42 42 41 40 39 39 38 38 37 36 37 40 41 39 38 39 40 37 33 33 39 45 46 45 42 40 39 41 43 42 40 37 33 29 25 22 22 24 27 27 32 32 32 32 26 25 28 29 28 27 28
10 8 7 9 13 13 18 17 12 13 12 12 11 9 10 9 10 17 26 31 28 22 22 23 25 28 27 32 35 41 53 51 47 45 42 43 42 45 45 46 48 48 48 44 43 41 42 42 42 42 41 41 40 39 37 35 35 38 39 39 37 36 37 35 35 40 46 51 52 48 44 43 42 43 45 45 43 40 39 35 29 26 23 24 23 27 34 35 35 36 32 29 28 29 29 27 28
8 8 8 9 15 15 13 15 13 11 11 10 11 11 12 10 13 24 30 29 23 23 26 26 31 35 37 43 43 48 55 53 48 45 45 42 40 43 43 47 48 47 46 45 46 44 43 44 44 43 43 42 41 40 38 36 35 36 38 38 36 35 38 40 43 48 51 55 55 50 47 46 46 48 49 51 48 45 45 41 36 32 28 26 25 26 31 34 35 36 36 35 31 30 30 28 29
8 8 8 9 16 17 11 15 14 11 9 8 11 11 11 11 15 20 19 18 22 28 31 31 34 37 44 47 46 52 55 49 44 42 43 40 41 44 46 49 46 45 48 47 48 47 44 44 44 43 43 42 42 41 39 38 37 37 39 40 39 39 42 45 50 55 56 57 57 53 50 49 51 52 52 56 54 51 52 47 44 40 34 30 29 28 28 30 33 34 36 39 34 31 31 30 30
8 8 8 9 13 15 11 13 14 11 8 7 11 12 12 12 13 13 10 10 16 24 29 34 37 38 46 50 49 52 50 47 44 40 37 37 41 44 44 47 45 46 51 52 51 48 45 44 44 44 45 44 44 42 42 40 40 41 43 45 44 42 44 51 57 59 60 61 60 56 53 52 53 53 57 63 59 57 56 51 53 49 42 37 33 32 31 30 31 32 34 38 35 31 32 32 33
8 9 11 10 12 11 10 12 11 10 10 8 10 11 12 12 11 10 9 9 13 21 27 32 36 40 45 47 53 54 49 48 43 39 37 38 41 42 42 45 49 52 55 55 52 49 47 47 45 47 47 47 47 45 45 43 44 45 47 49 49 46 49 56 59 60 63 63 61 57 54 52 52 52 57 60 58 60 55 52 58 56 50 43 37 35 34 33 34 33 33 36 33 31 33 34 35
7 12 14 10 12 12 9 10 9 9 10 9 9 10 11 12 10 9 9 10 13 21 28 33 34 41 47 50 58 56 51 48 42 40 38 39 42 42 41 47 56 59 62 58 53 52 51 50 49 49 49 49 50 49 48 47 48 49 52 56 56 55 56 59 59 60 64 64 62 58 54 53 52 53 54 52 56 62 52 48 57 59 55 49 43 40 38 39 39 38 37 36 33 33 34 36 38
8 12 15 10 12 14 10 9 8 8 9 9 8 9 10 10 8 7 9 10 13 17 25 33 32 39 51 54 58 57 53 48 42 41 38 41 43 42 45 53 61 64 72 68 57 55 53 54 53 52 52 53 55 54 54 53 54 58 61 63 62 61 59 60 60 61 64 64 61 56 54 53 52 52 52 53 59 58 48 47 52 56 55 51 47 43 39 41 42 41 40 37 33 34 35 37 40
11 11 13 11 11 13 11 9 8 8 8 8 8 9 9 8 7 7 8 10 12 13 21 30 29 39 53 55 57 58 54 47 43 39 37 42 42 44 53 58 58 61 70 70 63 59 57 57 57 57 57 58 61 60 60 62 64 65 67 67 65 63 61 62 63 64 65 63 59 56 55 53 51 50 50 55 59 54 50 50 50 54 56 55 48 42 40 41 42 41 41 38 32 31 34 37 40
13 11 10 11 11 11 11 10 10 10 10 8 8 8 10 8 6 7 8 10 11 12 18 26 32 44 55 56 58 59 52 45 41 36 36 41 42 45 50 51 51 53 59 63 62 58 57 59 59 61 61 62 64 64 65 67 68 67 67 69 66 64 63 65 66 64 63 61 59 59 57 54 52 50 51 55 56 53 53 53 52 55 57 58 52 43 40 39 41 40 40 40 35 30 32 36 40
13 12 11 11 11 9 10 11 12 12 10 9 7 9 12 9 7 8 7 9 10 11 16 26 39 48 59 65 63 61 50 43 41 37 38 40 43 46 46 48 50 50 52 54 53 53 53 55 56 58 59 61 63 65 68 69 68 67 68 69 68 67 67 67 65 64 64 62 61 63 59 55 52 51 53 56 56 55 54 51 52 55 57 56 51 45 41 37 36 36 34 37 38 33 32 35 39
12 14 14 12 10 9 9 10 12 10 10 8 7 11 12 12 13 10 7 10 9 12 19 29 44 52 64 71 65 59 50 43 41 37 40 42 43 45 45 48 49 48 50 49 47 49 49 49 51 55 60 61 62 65 69 67 65 63 62 64 67 70 71 68 66 67 67 64 63 62 58 54 53 52 54 55 57 56 50 48 49 50 51 49 45 44 44 40 34 31 29 31 35 36 36 36 38
11 13 14 14 11 10 9 10 11 10 12 10 10 10 9 16 17 13 11 11 10 14 25 35 47 56 59 62 57 54 50 46 43 38 38 42 42 42 43 45 46 48 50 49 48 47 47 49 51 57 63 64 64 67 69 66 62 59 57 60 65 66 67 68 70 71 66 63 62 60 57 54 53 52 52 53 53 50 46 47 47 46 46 44 43 44 46 46 40 34 30 27 30 34 37 38 38
12 13 13 14 12 11 12 10 9 10 13 12 13 11 9 19 19 18 18 13 17 24 34 43 48 54 54 55 54 53 52 48 44 38 35 40 43 42 42 43 45 51 54 53 54 51 50 53 55 59 63 65 68 69 70 65 61 60 58 59 62 63 64 68 72 70 63 59 59 58 57 54 56 56 52 52 49 46 46 47 46 45 44 44 45 45 44 47 45 39 33 29 28 30 33 37 38
13 13 13 14 11 12 14 13 9 11 15 12 13 11 9 21 21 24 27 22 31 38 46 54 53 55 54 53 55 53 48 42 39 36 35 38 43 43 42 42 45 56 63 60 61 59 57 56 57 61 62 65 69 69 69 66 63 62 61 64 70 73 73 73 70 64 58 56 56 56 56 58 64 63 56 54 52 50 50 50 49 47 45 44 44 44 43 44 45 43 37 31 27 29 32 34 37
14 13 13 14 11 13 15 15 13 13 17 14 13 11 9 20 23 25 28 29 38 43 52 59 55 54 50 48 50 47 40 37 37 35 35 36 40 42 41 44 47 57 63 62 63 60 61 60 57 63 66 68 71 68 68 66 65 65 64 69 73 74 73 70 62 55 54 53 53 53 57 63 64 62 57 57 57 55 53 50 50 48 47 46 45 45 46 44 44 44 42 36 29 27 31 34 36
14 12 12 12 12 15 16 15 15 14 16 15 12 11 9 15 23 26 30 37 44 47 52 55 53 48 43 43 42 38 37 37 37 36 36 37 40 41 40 46 50 54 56 59 66 61 59 60 60 67 69 70 72 70 70 68 68 69 68 69 71 70 66 61 53 50 51 52 52 55 64 68 63 61 60 58 57 56 53 51 50 50 49 49 49 50 49 47 44 45 45 43 36 32 35 39 40
13 12 12 12 12 16 16 13 13 13 14 15 12 11 11 12 19 26 34 46 52 53 55 54 53 47 39 36 34 35 38 37 37 37 39 40 40 41 42 46 47 52 55 60 67 61 56 59 61 67 69 72 75 71 73 72 69 71 71 72 73 69 62 56 50 52 54 53 55 61 70 72 66 63 60 56 55 56 56 53 52 52 53 52 53 55 56 53 48 48 49 49 47 44 44 42 43
13 12 12 13 13 14 14 13 12 13 13 14 12 10 12 12 15 23 34 47 53 55 56 54 55 52 41 33 32 36 38 37 38 39 40 41 40 41 43 42 42 46 51 56 60 58 60 63 63 67 72 76 77 74 73 72 69 71 73 72 69 64 59 55 54 55 56 56 60 64 70 71 66 62 59 56 56 60 64 64 61 58 59 59 58 61 64 61 58 59 57 57 58 55 54 49 46
14 12 11 12 15 14 13 14 12 11 11 11 11 11 13 13 13 20 30 39 45 50 52 52 55 56 48 37 33 35 36 36 38 40 41 41 40 41 41 39 40 44 49 54 58 60 66 69 65 71 80 79 76 75 76 73 69 69 71 67 62 59 58 59 60 59 59 60 62 67 73 70 64 62 60 59 58 61 66 72 75 68 66 67 64 65 67 67 69 72 69 66 67 65 62 58 53
15 12 12 13 14 15 14 14 12 11 11 10 11 12 13 12 14 19 25 33 40 45 47 50 54 54 49 38 32 34 34 35 39 42 42 41 41 41 41 40 42 49 52 52 55 56 61 65 63 71 79 75 71 71 75 76 67 64 65 63 61 59 59 61 62 63 62 60 63 70 72 64 60 60 59 59 60 62 64 69 74 69 66 68 67 68 69 72 76 76 74 71 70 70 66 62 61
15 13 13 14 13 13 14 14 12 11 10 11 12 12 12 12 15 15 19 31 40 44 43 47 54 50 46 38 32 34 33 35 39 42 43 42 43 43 43 44 44 48 50 47 48 48 51 55 58 67 71 67 66 65 69 71 64 61 62 61 59 56 57 58 58 63 64 61 66 67 60 54 53 52 50 50 52 55 59 64 67 66 64 66 70 72 72 77 78 73 71 70 67 69 68 65 65
14 13 14 14 14 13 13 12 11 11 11 12 12 11 13 12 14 14 16 26 34 38 36 40 52 48 42 38 31 32 33 35 39 42 41 39 43 44 44 46 44 45 47 45 44 45 47 50 55 67 68 62 63 61 62 64 62 61 60 59 57 53 54 54 54 60 61 59 63 61 51 46 45 42 42 42 42 43 49 57 61 62 62 63 68 72 73 78 81 79 76 73 70 69 70 68 67
14 14 13 13 14 13 13 12 11 11 11 12 12 11 13 13 13 14 15 22 27 28 26 32 46 44 37 36 31 31 34 36 37 38 38 37 41 43 43 44 43 43 46 45 45 46 50 52 58 69 68 59 57 56 57 60 60 60 58 56 55 52 53 55 54 58 58 55 57 54 45 40 37 37 37 38 39 39 44 51 54 55 59 63 66 70 74 77 81 84 80 76 74 72 72 71 70
17 15 13 12 13 14 13 12 10 11 11 11 12 12 14 14 13 13 14 19 23 23 21 28 42 43 36 36 37 35 34 36 37 38 39 40 42 42 42 43 43 44 46 47 47 49 51 54 59 65 67 62 56 53 54 56 58 60 59 57 56 55 55 56 54 53 52 53 56 49 39 36 33 33 34 35 38 40 42 45 48 53 59 63 65 69 75 79 80 81 80 76 75 75 76 75 73
16 14 13 13 13 13 13 12 11 11 12 11 12 13 14 14 12 15 18 19 21 21 22 28 40 44 35 34 42 40 35 36 38 41 43 42 42 43 41 41 43 45 46 48 49 50 53 55 56 60 67 65 58 54 51 51 53 56 57 57 57 57 55 53 51 49 48 54 57 46 37 36 34 34 35 35 36 40 42 43 47 53 59 63 65 70 76 79 79 77 79 76 71 72 74 77 77
14 13 14 13 12 13 13 12 12 11 12 12 12 13 15 14 12 15 20 22 22 22 25 32 40 44 38 35 41 41 36 37 38 40 42 41 42 42 41 42 42 44 47 50 51 52 53 55 56 58 66 66 61 58 53 52 55 57 58 58 56 55 53 52 50 46 45 51 51 42 38 39 37 37 38 37 36 39 41 42 46 50 57 63 66 71 76 77 77 75 76 73 67 66 65 69 74
14 13 12 13 13 13 12 12 12 11 12 13 13 14 14 14 12 13 19 24 25 24 28 36 42 45 41 39 39 37 36 37 39 39 40 41 42 41 41 43 43 44 49 52 53 53 52 56 57 58 62 64 63 61 56 56 59 59 60 59 55 52 51 51 48 43 41 42 41 37 36 37 38 39 41 40 36 39 40 39 45 50 54 62 67 71 75 75 74 72 71 68 65 64 62 62 66
12 12 12 12 13 13 12 12 11 11 12 13 13 14 14 14 14 13 16 23 23 25 30 36 45 47 41 37 36 36 37 38 40 40 41 43 42 41 42 44 45 47 51 53 53 50 52 58 59 57 58 59 60 62 59 58 60 60 65 65 58 56 56 51 48 46 43 41 39 38 34 33 35 40 43 39 37 40 41 42 47 49 51 58 65 71 73 73 73 72 67 65 64 64 64 63 62
12 13 14 12 12 13 14 14 12 12 13 13 13 14 13 14 17 17 17 21 22 24 29 35 46 50 42 36 35 37 37 37 40 41 43 45 43 42 43 44 46 48 51 53 52 52 55 60 58 54 53 53 54 60 63 62 64 65 67 67 61 58 56 49 48 47 45 45 45 41 37 34 33 35 37 37 40 44 43 43 46 46 46 54 61 66 70 72 75 76 69 63 63 64 65 64 62
13 13 14 14 12 12 17 17 13 12 13 13 13 13 12 14 18 19 19 21 23 23 26 34 45 51 45 38 36 36 36 38 40 41 45 45 43 43 44 45 45 48 52 53 54 54 56 58 55 49 48 48 47 54 60 59 60 58 56 57 56 55 51 47 46 43 43 45 44 41 41 39 34 35 39 41 43 45 43 44 46 44 42 49 58 59 63 69 73 76 72 63 63 66 65 61 60
16 14 12 14 14 12 17 20 15 13 14 13 14 12 12 17 19 21 22 22 24 24 25 34 45 49 46 39 36 36 35 38 40 42 45 44 43 45 45 45 45 48 51 54 56 56 58 58 51 46 46 46 44 49 54 52 51 48 45 46 47 47 47 45 44 43 44 44 43 43 43 43 39 36 42 51 53 49 46 45 46 46 43 48 56 55 58 67 72 75 72 64 63 67 68 62 60
16 15 14 14 15 13 15 20 20 15 13 13 14 14 12 18 23 24 24 23 24 24 25 37 46 46 44 38 35 36 36 38 40 42 44 44 44 46 47 46 47 49 50 54 57 58 61 58 50 46 44 45 47 50 50 47 43 40 39 41 41 41 42 42 40 42 44 42 43 45 40 40 42 37 38 50 58 54 49 47 45 47 45 46 52 53 57 68 75 76 72 67 63 66 70 65 60
20 18 15 13 16 17 14 19 23 16 12 13 13 15 13 15 22 23 22 21 24 25 25 37 47 44 40 35 33 35 37 39 40 41 44 44 45 47 47 47 48 49 50 54 57 59 60 56 51 48 43 44 50 50 47 43 39 39 40 41 43 43 42 40 38 40 43 40 41 43 39 38 38 40 42 44 46 50 51 48 48 53 49 45 47 50 60 72 75 73 74 78 73 70 71 65 60
28 24 19 14 18 22 16 17 24 18 13 15 13 14 14 13 16 19 19 20 23 25 24 34 44 42 37 32 32 34 38 38 36 39 42 42 45 47 47 48 49 50 51 55 57 60 60 57 54 51 46 46 48 46 44 42 40 40 42 43 43 42 40 39 38 39 40 37 36 37 38 39 36 40 45 41 40 47 47 44 54 62 52 43 43 48 61 70 69 71 78 82 76 70 68 64 63
25 23 20 17 18 21 17 17 25 22 15 17 15 13 14 14 14 17 18 20 24 24 24 33 42 42 38 34 33 35 37 38 36 36 40 40 41 44 48 51 51 52 53 55 57 60 60 58 57 52 48 47 45 43 41 41 42 42 42 42 41 39 39 40 41 40 37 33 33 35 36 39 38 40 41 39 40 42 40 42 53 57 47 41 42 48 59 62 62 71 77 74 68 66 64 59 59
23 19 18 19 19 19 21 22 26 23 19 18 17 15 15 16 16 18 19 21 26 25 24 33 40 40 41 40 37 35 37 41 39 36 38 37 38 43 49 52 54 55 56 58 57 57 56 57 56 52 48 48 46 44 45 48 49 46 44 42 40 41 40 39 38 39 40 38 35 36 35 36 38 42 40 36 35 34 36 42 47 50 48 44 44 49 56 58 62 70 72 68 64 61 56 52 54
22 20 17 18 21 20 23 27 25 21 19 17 17 20 20 19 19 19 19 22 27 26 24 32 37 37 43 46 39 36 42 47 42 38 39 38 40 46 48 51 58 61 62 62 60 57 58 59 58 56 54 54 52 50 54 57 52 47 46 44 43 42 38 34 34 38 42 43 40 38 36 33 34 40 42 41 39 35 37 44 50 56 56 51 55 59 57 56 59 64 65 61 55 52 51 52 53
19 20 18 18 23 22 22 29 28 23 21 17 19 25 24 23 22 19 19 22 25 27 25 29 36 41 48 47 38 38 49 49 41 40 43 42 44 50 51 55 64 67 66 67 64 62 64 63 64 65 62 60 57 54 57 55 48 44 44 43 42 40 38 36 38 41 42 43 43 43 39 36 35 35 36 41 42 37 34 38 46 54 55 56 62 66 63 57 52 55 59 54 48 48 52 56 53
19 19 18 18 25 28 25 27 30 27 23 18 18 23 22 21 21 18 20 22 22 26 27 29 39 50 51 43 36 42 48 47 43 43 46 47 50 56 57 58 62 64 67 68 66 65 66 66 69 70 66 64 59 54 55 52 48 45 44 45 46 43 42 42 42 43 44 44 43 44 43 40 40 37 33 35 36 33 32 33 36 44 48 49 50 54 59 57 50 51 53 47 44 46 48 51 56
21 19 17 19 26 30 29 27 27 27 27 24 19 19 20 22 25 24 23 22 21 24 26 28 39 51 49 37 35 43 44 43 44 44 47 54 59 61 59 54 54 60 64 64 63 65 68 69 70 69 64 63 62 58 53 50 49 49 47 48 49 47 47 46 45 44 46 45 44 46 42 38 38 37 34 33 30 26 26 26 28 33 39 39 38 40 44 45 43 46 48 44 43 49 46 45 56
22 21 18 18 21 24 27 28 27 26 29 32 27 21 21 26 32 33 27 22 21 24 24 27 36 47 47 38 41 49 47 46 49 50 53 60 63 63 59 54 53 58 61 60 60 64 67 66 66 65 59 60 65 62 53 48 51 51 50 52 51 51 50 48 46 44 44 45 46 46 41 37 38 37 35 35 32 27 24 22 22 24 28 30 30 30 33 36 38 42 44 43 42 45 45 47 54
23 27 21 17 19 19 21 25 25 24 30 36 33 26 23 27 32 34 29 21 20 22 24 28 33 40 41 38 45 52 50 49 52 59 64 66 69 68 65 61 56 55 56 57 57 59 62 60 60 61 60 62 64 59 52 50 51 51 54 57 55 53 50 47 44 42 43 44 45 46 42 39 39 38 37 36 35 32 26 22 21 23 25 26 25 27 33 35 36 37 36 37 39 39 40 45 47
22 28 22 16 15 15 18 21 21 22 28 34 35 30 24 27 33 34 29 21 18 20 22 25 29 38 41 36 39 46 48 50 52 61 71 74 76 73 69 67 62 57 57 57 56 58 62 62 61 62 63 63 60 55 53 50 47 49 52 55 55 54 50 46 43 42 44 45 45 45 44 41 40 40 39 36 36 36 31 27 27 31 32 31 31 35 39 38 34 33 32 33 36 39 39 42 44
22 25 20 17 15 16 20 20 22 28 30 28 33 35 27 29 37 36 30 25 24 23 24 25 26 37 46 40 37 40 45 51 54 65 74 70 66 66 67 71 68 64 65 64 61 60 62 64 66 67 63 58 56 56 54 50 46 47 48 50 53 55 52 47 44 43 44 45 44 43 44 44 42 42 40 38 36 36 36 31 32 37 38 36 39 42 43 42 35 30 31 32 35 39 41 41 42
23 23 20 20 20 21 23 20 22 30 33 27 32 36 30 32 40 39 33 30 32 30 30 30 30 40 51 45 38 39 45 52 57 71 75 63 59 62 65 69 66 64 66 66 65 61 58 62 69 70 64 57 57 57 55 52 48 47 46 47 51 55 54 50 47 46 44 43 43 44 44 45 45 45 43 40 36 36 38 34 33 38 38 37 43 45 43 43 40 34 32 34 36 38 39 41 41
23 23 23 28 28 28 28 25 22 24 30 31 34 38 35 34 42 45 41 35 36 36 33 33 33 40 49 46 41 42 46 50 58 74 76 66 67 68 64 65 63 62 63 62 63 60 57 59 63 65 64 61 58 56 55 53 48 46 45 45 48 53 55 57 56 51 48 46 45 46 46 44 46 47 46 43 39 37 39 39 36 36 36 36 40 42 39 39 39 37 35 35 35 36 37 40 41
22 22 24 33 36 35 32 30 27 26 30 33 35 39 37 36 44 51 47 37 35 36 33 31 30 34 39 42 46 49 52 53 59 72 74 67 69 69 66 67 66 65 61 55 56 57 54 55 54 55 58 60 59 56 54 53 49 47 46 46 47 50 53 58 59 56 54 54 51 49 48 47 48 50 51 52 48 42 43 44 41 37 35 33 34 37 38 37 37 37 37 37 38 37 35 37 38
20 20 26 36 39 39 34 32 33 32 34 38 38 37 36 39 47 49 43 36 34 34 32 30 31 35 36 38 46 50 52 56 59 65 67 63 64 66 65 66 66 66 60 54 55 53 49 49 48 50 52 53 55 57 55 53 52 51 49 48 50 49 50 55 61 61 59 61 60 55 52 51 51 54 57 58 55 48 46 48 45 39 34 31 31 35 37 37 37 37 37 38 37 34 32 32 33
22 17 26 38 39 38 36 35 36 35 37 42 40 35 36 41 45 44 41 38 37 35 35 36 37 38 38 41 49 47 44 50 53 56 59 57 57 58 59 61 64 65 60 56 57 53 49 48 46 49 52 52 53 57 58 56 55 55 53 51 51 51 52 59 64 63 59 60 59 56 54 50 51 57 60 60 59 52 46 46 44 39 34 34 34 34 34 35 37 37 35 34 32 28 26 24 22
32 21 26 37 38 37 37 38 37 34 35 40 39 36 37 40 43 43 42 41 41 39 37 39 40 39 37 43 53 51 48 49 47 50 56 58 58 58 61 64 66 66 65 63 61 55 51 51 50 50 52 53 54 56 57 56 57 60 59 56 55 54 57 61 63 60 55 54 51 48 50 50 52 57 58 57 59 55 51 48 44 38 35 35 35 33 31 31 32 31 29 27 24 20 17 16 15
39 35 33 36 37 36 38 41 40 35 33 34 37 39 38 40 43 44 43 42 44 45 43 41 41 40 38 40 45 47 50 50 48 54 59 60 62 62 63 66 68 69 72 70 64 58 54 54 55 55 53 53 56 57 58 58 60 64 65 62 60 60 61 61 61 60 55 50 44 40 42 46 49 51 50 51 52 51 52 49 40 35 34 34 33 31 26 25 25 22 20 19 16 14 13 13 14
34 40 39 38 39 38 36 37 37 36 33 31 33 35 38 42 44 44 46 45 46 49 48 47 48 46 42 40 40 42 47 51 53 58 59 59 62 63 62 64 67 69 71 71 65 60 59 55 54 58 60 59 61 62 62 64 65 66 63 59 58 60 60 59 60 59 54 46 41 39 37 37 37 38 44 48 46 43 46 46 40 36 35 33 30 26 23 22 20 17 16 16 15 16 18 18 20
25 32 38 39 40 41 39 35 33 33 34 35 34 35 42 48 48 49 51 48 46 49 51 53 53 51 46 43 42 41 44 51 54 53 53 54 57 59 59 63 66 67 70 72 66 60 60 58 57 64 71 70 69 68 66 64 65 65 62 56 52 54 56 55 54 54 51 45 41 40 36 32 32 35 42 46 42 40 41 42 41 41 40 36 30 24 23 21 19 19 20 20 20 23 26 26 28
26 27 32 36 38 39 39 38 37 35 36 38 36 39 50 54 51 51 51 46 43 46 52 54 52 50 47 45 44 44 45 50 52 50 49 51 50 52 57 61 64 67 69 71 66 61 60 59 57 65 72 70 66 64 62 61 60 61 59 54 50 49 49 48 47 47 47 43 40 40 37 36 38 41 46 46 42 42 43 41 44 45 41 38 32 27 27 26 25 26 26 25 27 29 31 32 33
34 32 30 31 35 38 39 39 40 38 38 40 38 44 57 57 51 50 46 43 44 48 54 56 52 48 46 47 47 46 47 49 50 49 50 52 52 52 55 58 61 64 66 65 63 62 63 60 58 63 69 68 65 63 59 57 57 56 55 53 51 48 45 44 44 46 46 41 37 37 37 40 42 45 51 51 46 46 48 46 46 45 41 37 34 32 35 36 35 32 29 30 32 32 33 33 35